Regional Weather Roundup
Issued by NWS Bismarck, ND

Home | Current Version | Previous Version | Text Only | Print | Product List | Glossary On
Versions: 1 2 3 4 5 6 7 8 9 10 11 12 13 14 15 16 17 18 19 20 21 22 23 24 25 26 27 28 29 30 31 32 33 34 35 36 37 38 39 40 41 42 43 44 45 46 47 48 49 50
000
ASUS43 KBIS 231420
RWRBIS

NWR BROADCAST TEXT
NATIONAL WEATHER SERVICE BISMARCK ND
900 AM CDT WED JUL 23 2014

NOTE: "FAIR" INDICATES FEW OR NO CLOUDS BELOW 12,000 FEET WITH NO
SIGNIFICANT WEATHER AND/OR OBSTRUCTIONS TO VISIBILITY.


CITY           SKY/WX    TMP DP  RH WIND       PRES   REMARKS
WILLISTON      PTSUNNY   70  62  76 E7        30.22S
MINOT          CLOUDY    65  63  93 E8        30.27F
MINOT AFB      PTSUNNY   64  64 100 E10       30.27S
BISMARCK       SUNNY     70  61  73 SE9       30.28R
DICKINSON      SUNNY     68  62  81 SE12      30.23R
GARRISON         N/A     70  64  81 SE10      30.26S
HETTINGER ARPT SUNNY     67  60  78 SE15G21   30.25R
JAMESTOWN      LGT RAIN  64  60  87 CALM      30.31S
CARRINGTON     PTSUNNY   64  64 100 E7        30.33S
CROSBY         PTSUNNY   64  64 100 E14       30.26F
HARVEY         FAIR      64  64 100 SE9G16    30.30S
HAZEN          FAIR      68  63  83 SE8G16    30.26S
MANDAN         FAIR      68  61  77 SE15      30.29R
RUGBY          FAIR      63  59  88 E14       30.31S
STANLEY        PTSUNNY   66  66 100 E10       30.27S
TIOGA          FAIR      70  70 100 E13       30.28F
WATFORD CITY   FAIR      68  64  88 SE7       30.21S
$$

CITY           SKY/WX    TMP DP  RH WIND       PRES   REMARKS
GRAND FORKS    PTSUNNY   63  59  87 NW5       30.32R
GRAND FORKS AF PTSUNNY   62  62  99 N6        30.33R
DEVILS LAKE    CLOUDY    64  54  68 E8        30.32S
FARGO          PTSUNNY   65  59  81 N5        30.30R
CANDO          CLOUDY    61  55  82 E5        30.35R
CAVALIER       FAIR      63  57  82 N7        30.34R
GRAFTON        FAIR      61  59  94 NW7       30.33R
GWINNER        MOSUNNY   66  61  82 E3        30.31S
LANGDON        PTSUNNY   63  48  59 NE7       30.34S
ROLLA          FAIR      61  54  77 E8        30.35F
WALHALLA         N/A     61  59  94 N6          N/A
$$

CITY           SKY/WX    TMP DP  RH WIND       PRES   REMARKS
ABERDEEN       MOSUNNY   67  59  75 S6        30.30R
MOBRIDGE       SUNNY     70  59  68 SE13      30.25S
BUFFALO          N/A     68  61  78 CALM      30.18R
RAPID CITY     PTSUNNY   71  59  65 SE6       30.24R
GLASGOW        SUNNY     70  60  70 E16       30.16F
SIDNEY         MOSUNNY   72  63  73 E3        30.22F
WOLF POINT     MOSUNNY   67  60  78 E13       30.18F
GLENDIVE       SUNNY     66  61  82 SE5       30.21F
MILES CITY     SUNNY     68  62  81 NE5       30.19F
BAKER          SUNNY     67  61  81 SE10      30.24R
$$

CITY           SKY/WX    TMP DP  RH WIND       PRES   REMARKS
BILLINGS       MOSUNNY   63  58  83 CALM      30.15S
GREAT FALLS    TSTM      59  57  93 SW7       30.18R
REGINA         MOSUNNY   64  57  77 SE13G20   30.27F
ESTEVAN        MOSUNNY   64  57  77 E8        30.28R
$$




USA.gov is the U.S. government's official web portal to all federal, state and local government web resources and services.